When you browse on this site, cookies collect data to enhance your experience and personalize the content and advertising you see.
Visit our Privacy Policy to learn more. By continuing to use the site, you agree to this use of cookies and data.
  • In United Kingdom
  • List of Countries
  • For 7 days
  • Water Temperature
  • Satellite Maps
  • Weather Map
  • Weather Widgets
  • user-avatar
    Login

    Hourly Weather Corat

    Today, 24 March, Sunday

    Time Temperature Precipitation Wind Pressure Humidity
    00:00 +9°C° 0 mm 8 mps 759 mmHg 81%
    01:00 +9°C° 0 mm 7 mps 759 mmHg 82%
    02:00 +9°C° 0 mm 6 mps 759 mmHg 83%
    03:00 +9°C° 0 mm 6 mps 759 mmHg 83%
    04:00 +8°C° 0 mm 6 mps 759 mmHg 84%
    05:00 +8°C° 0 mm 5 mps 759 mmHg 85%
    06:00 +7°C° 0 mm 5 mps 759 mmHg 86%
    07:00 +7°C° 0 mm 5 mps 760 mmHg 84%
    08:00 +7°C° 0 mm 6 mps 760 mmHg 81%
    09:00 +8°C° 0 mm 7 mps 760 mmHg 78%
    10:00 +8°C° 0 mm 7 mps 760 mmHg 77%
    11:00 +9°C° 0 mm 8 mps 760 mmHg 75%
    12:00 +9°C° 0 mm 8 mps 760 mmHg 74%
    13:00 +8°C° 0 mm 9 mps 760 mmHg 73%
    14:00 +8°C° 0 mm 10 mps 759 mmHg 73%
    15:00 +7°C° 0 mm 11 mps 759 mmHg 73%
    16:00 +7°C° 0 mm 11 mps 759 mmHg 75%
    17:00 +6°C° 0 mm 10 mps 760 mmHg 77%
    18:00 +6°C° 0 mm 10 mps 760 mmHg 79%
    19:00 +5°C° 0 mm 10 mps 760 mmHg 78%
    20:00 +5°C° 0 mm 10 mps 760 mmHg 78%
    21:00 +5°C° 0 mm 10 mps 760 mmHg 78%
    22:00 +4°C° 0.1 mm 11 mps 760 mmHg 77%
    23:00 +4°C° 0.1 mm 11 mps 760 mmHg 77%

    Tomorrow, 25 March, Monday

    Time Temperature Precipitation Wind Pressure Humidity
    00:00 +4°C° 0.1 mm 11 mps 760 mmHg 76%
    01:00 +4°C° 0 mm 11 mps 761 mmHg 75%
    02:00 +4°C° 0 mm 12 mps 761 mmHg 75%
    03:00 +4°C° 0 mm 12 mps 761 mmHg 74%
    04:00 +4°C° 0.1 mm 12 mps 761 mmHg 73%
    05:00 +4°C° 0.1 mm 13 mps 761 mmHg 72%
    06:00 +4°C° 0.1 mm 13 mps 762 mmHg 71%
    07:00 +4°C° 0.3 mm 13 mps 762 mmHg 69%
    08:00 +4°C° 0.3 mm 13 mps 762 mmHg 68%
    09:00 +4°C° 0.3 mm 14 mps 763 mmHg 66%
    10:00 +4°C° 0.4 mm 14 mps 763 mmHg 68%
    11:00 +4°C° 0.4 mm 13 mps 763 mmHg 70%
    12:00 +4°C° 0.4 mm 13 mps 762 mmHg 71%
    13:00 +4°C° 0.4 mm 13 mps 762 mmHg 73%
    14:00 +4°C° 0.4 mm 12 mps 762 mmHg 74%
    15:00 +4°C° 0.4 mm 11 mps 762 mmHg 76%
    16:00 +4°C° 0.4 mm 11 mps 762 mmHg 75%
    17:00 +5°C° 0.4 mm 10 mps 762 mmHg 74%
    18:00 +3°C° 0.4 mm 9 mps 763 mmHg 73%
    19:00 +3°C° 0.2 mm 9 mps 763 mmHg 73%
    20:00 +4°C° 0.2 mm 8 mps 763 mmHg 72%
    21:00 +4°C° 0.2 mm 8 mps 764 mmHg 72%
    22:00 +4°C° 0 mm 7 mps 764 mmHg 71%
    23:00 +4°C° 0 mm 6 mps 764 mmHg 70%

    Day after tomorrow, 26 March, Tuesday

    Time Temperature Precipitation Wind Pressure Humidity
    00:00 +5°C° 0 mm 5 mps 764 mmHg 70%
    01:00 +5°C° 0 mm 5 mps 764 mmHg 70%
    02:00 +5°C° 0 mm 4 mps 764 mmHg 71%
    03:00 +5°C° 0 mm 4 mps 764 mmHg 71%
    04:00 +5°C° 0 mm 4 mps 764 mmHg 72%
    05:00 +5°C° 0 mm 4 mps 764 mmHg 72%
    06:00 +5°C° 0 mm 3 mps 764 mmHg 73%
    07:00 +6°C° 0 mm 4 mps 765 mmHg 69%
    08:00 +6°C° 0 mm 4 mps 765 mmHg 65%
    09:00 +7°C° 0 mm 4 mps 765 mmHg 62%
    10:00 +9°C° 0 mm 3 mps 765 mmHg 60%
    11:00 +9°C° 0 mm 3 mps 765 mmHg 58%
    12:00 +10°C° 0 mm 3 mps 765 mmHg 56%
    13:00 +10°C° 0 mm 3 mps 764 mmHg 56%
    14:00 +10°C° 0 mm 3 mps 764 mmHg 56%
    15:00 +10°C° 0 mm 3 mps 763 mmHg 55%
    16:00 +10°C° 0 mm 3 mps 764 mmHg 56%
    17:00 +10°C° 0 mm 3 mps 764 mmHg 57%
    18:00 +9°C° 0 mm 3 mps 764 mmHg 58%
    19:00 +9°C° 0 mm 3 mps 764 mmHg 60%
    20:00 +9°C° 0 mm 3 mps 764 mmHg 62%
    21:00 +9°C° 0 mm 3 mps 764 mmHg 64%
    22:00 +9°C° 0 mm 3 mps 763 mmHg 66%
    23:00 +8°C° 0 mm 3 mps 762 mmHg 67%

    27 March, Wednesday

    Time Temperature Precipitation Wind Pressure Humidity
    00:00 +8°C° 0 mm 3 mps 762 mmHg 69%
    01:00 +7°C° 0 mm 4 mps 761 mmHg 69%
    02:00 +7°C° 0 mm 5 mps 761 mmHg 69%
    03:00 +7°C° 0 mm 6 mps 761 mmHg 69%
    04:00 +7°C° 0 mm 6 mps 761 mmHg 69%
    05:00 +8°C° 0 mm 6 mps 761 mmHg 70%
    06:00 +8°C° 0 mm 6 mps 761 mmHg 70%
    07:00 +8°C° 0 mm 6 mps 761 mmHg 67%
    08:00 +9°C° 0 mm 6 mps 761 mmHg 64%
    09:00 +10°C° 0 mm 6 mps 761 mmHg 62%
    10:00 +12°C° 0 mm 5 mps 761 mmHg 60%
    11:00 +12°C° 0 mm 4 mps 761 mmHg 58%
    12:00 +13°C° 0 mm 3 mps 761 mmHg 57%
    13:00 +14°C° 0 mm 2 mps 761 mmHg 57%
    14:00 +14°C° 0 mm 2 mps 760 mmHg 58%
    15:00 +14°C° 0 mm 2 mps 760 mmHg 59%
    16:00 +13°C° 0 mm 2 mps 761 mmHg 63%
    17:00 +12°C° 0 mm 2 mps 761 mmHg 67%
    18:00 +12°C° 0 mm 2 mps 761 mmHg 71%
    19:00 +12°C° 0 mm 2 mps 762 mmHg 73%
    20:00 +11°C° 0 mm 1 mps 762 mmHg 75%
    21:00 +11°C° 0 mm 1 mps 763 mmHg 78%
    22:00 +11°C° 0 mm 1 mps 763 mmHg 78%
    23:00 +11°C° 0 mm 1 mps 763 mmHg 79%

    28 March, Thursday

    Time Temperature Precipitation Wind Pressure Humidity
    00:00 +11°C° 0 mm 1 mps 763 mmHg 80%
    01:00 +11°C° 0 mm 1 mps 763 mmHg 78%
    02:00 +11°C° 0 mm 1 mps 763 mmHg 77%
    03:00 +10°C° 0 mm 2 mps 763 mmHg 75%
    04:00 +10°C° 0 mm 2 mps 763 mmHg 73%
    05:00 +10°C° 0 mm 2 mps 764 mmHg 70%
    06:00 +9°C° 0 mm 3 mps 764 mmHg 68%
    07:00 +10°C° 0 mm 5 mps 765 mmHg 63%
    08:00 +11°C° 0 mm 8 mps 765 mmHg 59%
    09:00 +12°C° 0 mm 10 mps 766 mmHg 54%
    10:00 +11°C° 0 mm 11 mps 766 mmHg 58%
    11:00 +9°C° 0 mm 13 mps 766 mmHg 62%
    12:00 +8°C° 0 mm 14 mps 766 mmHg 66%
    13:00 +8°C° 0 mm 14 mps 766 mmHg 65%
    14:00 +6°C° 0 mm 14 mps 767 mmHg 65%
    15:00 +6°C° 0 mm 14 mps 767 mmHg 64%
    16:00 +5°C° 0 mm 14 mps 767 mmHg 64%
    17:00 +5°C° 0 mm 13 mps 768 mmHg 64%
    18:00 +4°C° 0 mm 13 mps 769 mmHg 65%
    19:00 +4°C° 0.1 mm 13 mps 769 mmHg 63%
    20:00 +4°C° 0.1 mm 12 mps 770 mmHg 61%
    21:00 +4°C° 0.1 mm 12 mps 770 mmHg 59%
    22:00 +3°C° 0.1 mm 11 mps 770 mmHg 59%
    23:00 +3°C° 0.1 mm 10 mps 770 mmHg 60%

    29 March, Friday

    Time Temperature Precipitation Wind Pressure Humidity
    00:00 +3°C° 0.1 mm 10 mps 770 mmHg 60%
    01:00 +3°C° 0.1 mm 10 mps 770 mmHg 60%
    02:00 +3°C° 0.1 mm 9 mps 770 mmHg 59%
    03:00 +3°C° 0.1 mm 9 mps 770 mmHg 59%
    04:00 +3°C° 0 mm 9 mps 770 mmHg 59%
    05:00 +3°C° 0 mm 9 mps 771 mmHg 59%
    06:00 +4°C° 0 mm 8 mps 771 mmHg 59%
    07:00 +4°C° 0 mm 8 mps 771 mmHg 58%
    08:00 +5°C° 0 mm 7 mps 771 mmHg 57%
    09:00 +5°C° 0 mm 6 mps 771 mmHg 57%
    10:00 +5°C° 0 mm 6 mps 771 mmHg 56%
    11:00 +7°C° 0 mm 5 mps 771 mmHg 56%
    12:00 +7°C° 0 mm 4 mps 770 mmHg 55%
    13:00 +7°C° 0 mm 4 mps 770 mmHg 56%
    14:00 +8°C° 0 mm 3 mps 769 mmHg 57%
    15:00 +8°C° 0 mm 3 mps 769 mmHg 58%
    16:00 +8°C° 0 mm 3 mps 769 mmHg 60%
    17:00 +8°C° 0 mm 3 mps 769 mmHg 61%
    18:00 +7°C° 0 mm 4 mps 768 mmHg 63%
    19:00 +7°C° 0 mm 4 mps 768 mmHg 65%
    20:00 +7°C° 0 mm 5 mps 768 mmHg 67%
    21:00 +7°C° 0 mm 5 mps 768 mmHg 70%
    22:00 +5°C° 0 mm 6 mps 767 mmHg 71%
    23:00 +5°C° 0 mm 6 mps 767 mmHg 73%
    Show more